,,,PA_Meas_PMT16A,,PR_Meas_QMR101_102,,RH_Meas_QMH101,,SR_Meas_QMS101,,TA_Meas_QMH101,,GenWind,,GenWind,
date,time,status,PA,status,PR,status,RH,status,SR,status,TA,status,DirAvg,status,SpdAvg,
2010-12-20, 00:00:04,VALID,998.904,VALID,0,VALID,92.3794,VALID,0,VALID,23.9159,VALID,58,VALID,1.36992,
2010-12-20, 00:01:04,VALID,998.89,VALID,0,VALID,92.3947,VALID,0,VALID,23.9159,VALID,59,VALID,1.3957,
2010-12-20, 00:02:04,VALID,998.842,VALID,0,VALID,92.4023,VALID,0,VALID,23.9159,VALID,59,VALID,1.08828,
2010-12-20, 00:03:04,VALID,998.811,VALID,0,VALID,92.4023,VALID,0,VALID,23.8963,VALID,59,VALID,0.968359,
2010-12-20, 00:04:04,VALID,998.788,VALID,0,VALID,92.4176,VALID,0,VALID,23.8963,VALID,54,VALID,1.14258,
2010-12-20, 00:05:04,VALID,998.781,VALID,0,VALID,92.4405,VALID,0,VALID,23.9159,VALID,54,VALID,0.934375,
2010-12-20, 00:06:04,VALID,998.758,VALID,0,VALID,92.4405,VALID,0,VALID,23.9159,VALID,54,VALID,0.867578,
2010-12-20, 00:07:04,VALID,998.773,VALID,0,VALID,92.4863,VALID,0,VALID,23.9159,VALID,53,VALID,0.865625,
2010-12-20, 00:08:04,VALID,998.741,VALID,0,VALID,92.4939,VALID,0,VALID,23.9354,VALID,50,VALID,0.844531,
2010-12-20, 00:09:04,VALID,998.748,VALID,0,VALID,92.5015,VALID,0,VALID,23.9354,VALID,50,VALID,0.653125,
2010-12-20, 00:10:04,VALID,998.788,VALID,0,VALID,92.5244,VALID,0,VALID,23.9354,VALID,50,VALID,0.546484,
2010-12-20, 00:11:04,VALID,998.748,VALID,0,VALID,92.532,VALID,0,VALID,23.9354,VALID,50,VALID,0.436719,
2010-12-20, 00:12:04,VALID,998.732,VALID,0,VALID,92.532,VALID,0,VALID,23.9354,VALID,50,VALID,0.2375,
2010-12-20, 00:13:04,VALID,998.731,VALID,0,VALID,92.5244,VALID,0,VALID,23.9354,VALID,50,VALID,0,
2010-12-20, 00:14:04,VALID,998.693,VALID,0,VALID,92.5244,VALID,0,VALID,23.9159,VALID,50,VALID,0.00507812,
2010-12-20, 00:15:04,VALID,998.683,VALID,0,VALID,92.5473,VALID,0,VALID,23.9354,VALID,50,VALID,0.269141,
2010-12-20, 00:16:04,VALID,998.644,VALID,0,VALID,92.5473,VALID,0,VALID,23.9549,VALID,50,VALID,0.0148437,
2010-12-20, 00:17:04,VALID,998.621,VALID,0,VALID,92.5549,VALID,0,VALID,23.9549,VALID,50,VALID,0.258594,
2010-12-20, 00:18:04,VALID,998.633,VALID,0,VALID,92.5702,VALID,0,VALID,23.9744,VALID,50,VALID,0.227344,
2010-12-20, 00:19:04,VALID,998.652,VALID,0,VALID,92.6083,VALID,0,VALID,23.9939,VALID,50,VALID,0.0382813,
2010-12-20, 00:20:04,VALID,998.677,VALID,0,VALID,92.5854,VALID,0,VALID,23.9939,VALID,50,VALID,0,
2010-12-20, 00:21:04,VALID,998.684,VALID,0,VALID,92.6083,VALID,0,VALID,23.9744,VALID,50,VALID,0,
2010-12-20, 00:22:04,VALID,998.659,VALID,0,VALID,92.6083,VALID,0,VALID,24.0153,VALID,50,VALID,0,
2010-12-20, 00:23:04,VALID,998.655,VALID,0,VALID,92.6083,VALID,0,VALID,23.9726,VALID,50,VALID,0.139062,
2010-12-20, 00:24:04,VALID,998.611,VALID,0,VALID,92.6083,VALID,0,VALID,23.9939,VALID,50,VALID,0.320313,
2010-12-20, 00:25:04,VALID,998.584,VALID,0,VALID,92.6312,VALID,0,VALID,23.9939,VALID,157,VALID,0.666016,
2010-12-20, 00:26:04,VALID,998.55,VALID,0,VALID,92.6083,VALID,0,VALID,23.9939,VALID,166,VALID,0.909375,
2010-12-20, 00:27:04,VALID,998.482,VALID,0,VALID,92.616,VALID,0,VALID,24.0329,VALID,167,VALID,0.787891,
2010-12-20, 00:28:04,VALID,998.434,VALID,0,VALID,92.6312,VALID,0,VALID,24.0525,VALID,167,VALID,0.34375,
2010-12-20, 00:29:04,VALID,998.435,VALID,0,VALID,92.6236,VALID,0,VALID,24.0525,VALID,167,VALID,0.470703,
2010-12-20, 00:30:04,VALID,998.413,VALID,0,VALID,92.6007,VALID,0,VALID,24.0915,VALID,167,VALID,0.196484,
2010-12-20, 00:31:04,VALID,998.383,VALID,0,VALID,92.5702,VALID,0,VALID,24.0915,VALID,167,VALID,0,
2010-12-20, 00:32:04,VALID,998.419,VALID,0,VALID,92.5397,VALID,0,VALID,24.0915,VALID,167,VALID,0.0613281,
2010-12-20, 00:33:04,VALID,998.377,VALID,0,VALID,92.5091,VALID,0,VALID,24.0915,VALID,167,VALID,0,
2010-12-20, 00:34:04,VALID,998.35,VALID,0,VALID,92.4786,VALID,0,VALID,24.072,VALID,167,VALID,0.221875,
2010-12-20, 00:35:04,VALID,998.354,VALID,0,VALID,92.4481,VALID,0,VALID,24.072,VALID,122,VALID,0.553516,
2010-12-20, 00:36:04,VALID,998.344,VALID,0,VALID,92.3718,VALID,0,VALID,24.0738,VALID,104,VALID,0.792578,
2010-12-20, 00:37:04,VALID,998.304,VALID,0,VALID,92.2955,VALID,0,VALID,24.072,VALID,92,VALID,0.708594,
2010-12-20, 00:38:04,VALID,998.251,VALID,0,VALID,92.2192,VALID,0,VALID,24.072,VALID,77,VALID,0.68125,
2010-12-20, 00:39:04,VALID,998.255,VALID,0,VALID,92.1506,VALID,0,VALID,24.0915,VALID,77,VALID,0.751172,
2010-12-20, 00:40:04,VALID,998.193,VALID,0,VALID,92.0437,VALID,0,VALID,24.0915,VALID,77,VALID,0.580859,
2010-12-20, 00:41:04,VALID,998.135,VALID,0,VALID,91.9598,VALID,0,VALID,24.111,VALID,77,VALID,0.470703,
2010-12-20, 00:42:04,VALID,998.117,VALID,0,VALID,91.8683,VALID,0,VALID,24.1305,VALID,77,VALID,0.348047,
2010-12-20, 00:43:04,VALID,998.125,VALID,0,VALID,91.8148,VALID,0,VALID,24.1519,VALID,77,VALID,0.248047,
2010-12-20, 00:44:04,VALID,998.13,VALID,0,VALID,91.7538,VALID,0,VALID,24.1305,VALID,77,VALID,0,
2010-12-20, 00:45:04,VALID,998.155,VALID,0,VALID,91.6623,VALID,0,VALID,24.15,VALID,77,VALID,0.0128906,
2010-12-20, 00:46:04,VALID,998.148,VALID,0,VALID,91.6165,VALID,0,VALID,24.1305,VALID,77,VALID,0,
2010-12-20, 00:47:04,VALID,998.123,VALID,0,VALID,91.5936,VALID,0,VALID,24.1305,VALID,77,VALID,0,
2010-12-20, 00:48:04,VALID,998.086,VALID,0,VALID,91.5936,VALID,0,VALID,24.1305,VALID,77,VALID,0.206641,
2010-12-20, 00:49:04,VALID,998.079,VALID,0,VALID,91.6088,VALID,0,VALID,24.15,VALID,77,VALID,0.35,
2010-12-20, 00:50:04,VALID,998.117,VALID,0,VALID,91.6241,VALID,0,VALID,24.15,VALID,77,VALID,0.4,
2010-12-20, 00:51:04,VALID,998.102,VALID,0,VALID,91.6088,VALID,0,VALID,24.1696,VALID,77,VALID,0.326953,
2010-12-20, 00:52:04,VALID,998.124,VALID,0,VALID,91.647,VALID,0,VALID,24.1696,VALID,77,VALID,0.439063,
2010-12-20, 00:53:04,VALID,998.148,VALID,0,VALID,91.6699,VALID,0,VALID,24.1891,VALID,77,VALID,0.416406,
2010-12-20, 00:54:04,VALID,998.197,VALID,0,VALID,91.6851,VALID,0,VALID,24.2086,VALID,77,VALID,0.396875,
2010-12-20, 00:55:04,VALID,998.216,VALID,0,VALID,91.708,VALID,0,VALID,24.2086,VALID,77,VALID,0.334766,
2010-12-20, 00:56:04,VALID,998.22,VALID,0,VALID,91.7309,VALID,0.112286,VALID,24.2263,VALID,57,VALID,0.521094,
2010-12-20, 00:57:04,VALID,998.234,VALID,0,VALID,91.7385,VALID,0.112286,VALID,24.2263,VALID,305,VALID,0.865234,
2010-12-20, 00:58:04,VALID,998.25,VALID,0,VALID,91.7309,VALID,0.112286,VALID,24.2458,VALID,297,VALID,0.964453,
2010-12-20, 00:59:04,VALID,998.27,VALID,0,VALID,91.7462,VALID,0.112286,VALID,24.2244,VALID,297,VALID,0.782812,
2010-12-20, 01:00:04,VALID,998.258,VALID,0,VALID,91.7309,VALID,0,VALID,24.2458,VALID,297,VALID,0.717969,
2010-12-20, 01:01:04,VALID,998.225,VALID,0,VALID,91.7309,VALID,0,VALID,24.2458,VALID,297,VALID,0.449219,
2010-12-20, 01:02:04,VALID,998.196,VALID,0,VALID,91.708,VALID,0.112286,VALID,24.2458,VALID,297,VALID,0.348437,
2010-12-20, 01:03:04,VALID,998.165,VALID,0,VALID,91.7233,VALID,0.112286,VALID,24.2244,VALID,297,VALID,0.760938,
2010-12-20, 01:04:04,VALID,998.111,VALID,0,VALID,91.7538,VALID,0.112286,VALID,24.2244,VALID,268,VALID,0.910156,
2010-12-20, 01:05:04,VALID,998.01,VALID,0,VALID,91.7462,VALID,0.112286,VALID,24.2244,VALID,269,VALID,0.760156,
2010-12-20, 01:06:04,VALID,997.969,VALID,0,VALID,91.7767,VALID,0.112286,VALID,24.2263,VALID,255,VALID,1.09805,
2010-12-20, 01:07:04,VALID,997.956,VALID,0,VALID,91.792,VALID,0.112286,VALID,24.2263,VALID,238,VALID,0.830469,
2010-12-20, 01:08:04,VALID,997.952,VALID,0,VALID,91.8148,VALID,0,VALID,24.2067,VALID,270,VALID,1.08438,
2010-12-20, 01:09:04,VALID,997.953,VALID,0,VALID,91.8225,VALID,0.112286,VALID,24.2067,VALID,254,VALID,0.598828,
2010-12-20, 01:10:04,VALID,997.992,VALID,0,VALID,91.8377,VALID,0.112286,VALID,24.1659,VALID,254,VALID,0.388281,
2010-12-20, 01:11:04,VALID,998.009,VALID,0,VALID,91.8377,VALID,0,VALID,24.1696,VALID,254,VALID,0.0972656,
2010-12-20, 01:12:04,VALID,998.006,VALID,0,VALID,91.8606,VALID,0,VALID,24.1677,VALID,254,VALID,0,
2010-12-20, 01:13:04,VALID,998.022,VALID,0,VALID,91.9064,VALID,0,VALID,24.1696,VALID,254,VALID,0.0414063,
2010-12-20, 01:14:04,VALID,998.062,VALID,0,VALID,91.8835,VALID,0,VALID,24.15,VALID,254,VALID,0,
2010-12-20, 01:15:04,VALID,998.06,VALID,0,VALID,91.8835,VALID,0,VALID,24.1305,VALID,254,VALID,0.0210938,
2010-12-20, 01:16:04,VALID,998.074,VALID,0,VALID,91.914,VALID,0,VALID,24.1305,VALID,254,VALID,0.388672,
2010-12-20, 01:17:04,VALID,998.07,VALID,0,VALID,91.9217,VALID,0,VALID,24.1305,VALID,139,VALID,0.612109,
2010-12-20, 01:18:04,VALID,998.077,VALID,0,VALID,91.9598,VALID,0,VALID,24.111,VALID,139,VALID,0.789063,
2010-12-20, 01:19:04,VALID,998.051,VALID,0,VALID,92.0132,VALID,0,VALID,24.1305,VALID,139,VALID,0.773828,
2010-12-20, 01:20:04,VALID,998.045,VALID,0,VALID,91.998,VALID,0,VALID,24.1092,VALID,139,VALID,0.60625,
2010-12-20, 01:21:04,VALID,998.046,VALID,0,VALID,92.0209,VALID,0,VALID,24.15,VALID,139,VALID,0.657031,
2010-12-20, 01:22:04,VALID,998.007,VALID,0,VALID,92.0056,VALID,0,VALID,24.1287,VALID,139,VALID,0.810156,
2010-12-20, 01:23:04,VALID,997.969,VALID,0,VALID,91.9827,VALID,0,VALID,24.15,VALID,139,VALID,0.694922,
2010-12-20, 01:24:04,VALID,997.925,VALID,0,VALID,91.9674,VALID,0,VALID,24.1287,VALID,139,VALID,0.678516,
2010-12-20, 01:25:04,VALID,997.922,VALID,0,VALID,91.9751,VALID,0,VALID,24.1287,VALID,140,VALID,0.790234,
2010-12-20, 01:26:04,VALID,997.949,VALID,0,VALID,91.9293,VALID,0,VALID,24.1696,VALID,141,VALID,0.874219,
2010-12-20, 01:27:04,VALID,998.005,VALID,0,VALID,91.914,VALID,0,VALID,24.1891,VALID,141,VALID,0.948828,
2010-12-20, 01:28:04,VALID,998.037,VALID,0,VALID,91.853,VALID,0,VALID,24.1677,VALID,132,VALID,1.13008,
2010-12-20, 01:29:04,VALID,998.08,VALID,0,VALID,91.7843,VALID,0,VALID,24.2086,VALID,132,VALID,0.878516,
2010-12-20, 01:30:04,VALID,998.054,VALID,0,VALID,91.7157,VALID,0,VALID,24.2086,VALID,132,VALID,0.73125,
2010-12-20, 01:31:04,VALID,998.077,VALID,0,VALID,91.6623,VALID,0,VALID,24.2086,VALID,118,VALID,0.723047,
2010-12-20, 01:32:04,VALID,998.039,VALID,0,VALID,91.6775,VALID,0,VALID,24.2281,VALID,113,VALID,0.872266,
2010-12-20, 01:33:04,VALID,997.987,VALID,0,VALID,91.6623,VALID,0,VALID,24.2263,VALID,110,VALID,1.02461,
2010-12-20, 01:34:04,VALID,997.994,VALID,0,VALID,91.6928,VALID,0,VALID,24.2671,VALID,107,VALID,1.22187,
2010-12-20, 01:35:04,VALID,997.968,VALID,0,VALID,91.7004,VALID,0,VALID,24.2458,VALID,107,VALID,1.05078,
2010-12-20, 01:36:04,VALID,997.916,VALID,0,VALID,91.708,VALID,0,VALID,24.2653,VALID,107,VALID,1.00664,
2010-12-20, 01:37:04,VALID,997.871,VALID,0,VALID,91.6928,VALID,0,VALID,24.2458,VALID,107,VALID,0.952344,
2010-12-20, 01:38:04,VALID,997.847,VALID,0,VALID,91.6928,VALID,0,VALID,24.2671,VALID,108,VALID,0.587891,
2010-12-20, 01:39:04,VALID,997.799,VALID,0,VALID,91.7004,VALID,0,VALID,24.2671,VALID,108,VALID,0,
2010-12-20, 01:40:04,VALID,997.794,VALID,0,VALID,91.708,VALID,0,VALID,24.2671,VALID,108,VALID,0.397266,
2010-12-20, 01:41:04,VALID,997.803,VALID,0,VALID,91.6928,VALID,0,VALID,24.2671,VALID,108,VALID,0.411719,
2010-12-20, 01:42:04,VALID,997.774,VALID,0,VALID,91.7157,VALID,0,VALID,24.2263,VALID,108,VALID,0.290625,
2010-12-20, 01:43:04,VALID,997.762,VALID,0,VALID,91.7233,VALID,0,VALID,24.2263,VALID,108,VALID,0.304297,
2010-12-20, 01:44:04,VALID,997.758,VALID,0,VALID,91.7385,VALID,0,VALID,24.2476,VALID,108,VALID,0.00585938,
2010-12-20, 01:45:04,VALID,997.763,VALID,0,VALID,91.7691,VALID,0,VALID,24.2458,VALID,108,VALID,0,
2010-12-20, 01:46:04,VALID,997.73,VALID,0,VALID,91.7996,VALID,0,VALID,24.2476,VALID,108,VALID,0,
2010-12-20, 01:47:04,VALID,997.746,VALID,0,VALID,91.792,VALID,0,VALID,24.2458,VALID,108,VALID,0.114063,
2010-12-20, 01:48:04,VALID,997.72,VALID,0,VALID,91.8072,VALID,0,VALID,24.2281,VALID,108,VALID,0.330469,
2010-12-20, 01:49:04,VALID,997.671,VALID,0,VALID,91.7691,VALID,0,VALID,24.1891,VALID,184,VALID,0.822266,
2010-12-20, 01:50:04,VALID,997.618,VALID,0,VALID,91.7004,VALID,0,VALID,24.1696,VALID,185,VALID,0.291797,
2010-12-20, 01:51:04,VALID,997.649,VALID,0,VALID,91.5631,VALID,0,VALID,24.1696,VALID,185,VALID,0.594922,
2010-12-20, 01:52:04,VALID,997.631,VALID,0,VALID,91.3418,VALID,0,VALID,24.1696,VALID,151,VALID,1.05508,
2010-12-20, 01:53:04,VALID,997.651,VALID,0,VALID,91.0671,VALID,0,VALID,24.1872,VALID,143,VALID,1.00312,
2010-12-20, 01:54:04,VALID,997.665,VALID,0,VALID,90.6628,VALID,0,VALID,24.2281,VALID,143,VALID,1.01211,
2010-12-20, 01:55:04,VALID,997.711,VALID,0,VALID,90.2431,VALID,0,VALID,24.2476,VALID,143,VALID,0.777344,
2010-12-20, 01:56:04,VALID,997.744,VALID,0,VALID,89.8922,VALID,0,VALID,24.2476,VALID,143,VALID,0.414063,
2010-12-20, 01:57:04,VALID,997.776,VALID,0,VALID,89.7091,VALID,0,VALID,24.2671,VALID,143,VALID,0.297656,
2010-12-20, 01:58:04,VALID,997.789,VALID,0,VALID,89.6938,VALID,0,VALID,24.2263,VALID,143,VALID,0.275,
2010-12-20, 01:59:04,VALID,997.786,VALID,0,VALID,89.648,VALID,0,VALID,24.2281,VALID,143,VALID,0.26875,
2010-12-20, 02:00:04,VALID,997.789,VALID,0,VALID,89.6099,VALID,0,VALID,24.2086,VALID,143,VALID,0.0640625,
2010-12-20, 02:01:04,VALID,997.779,VALID,0,VALID,89.6938,VALID,0,VALID,24.2086,VALID,143,VALID,0.364453,
2010-12-20, 02:02:04,VALID,997.769,VALID,0,VALID,89.7701,VALID,0,VALID,24.1891,VALID,143,VALID,0.451562,
2010-12-20, 02:03:04,VALID,997.769,VALID,0,VALID,89.8083,VALID,0,VALID,24.1696,VALID,143,VALID,0.542969,
2010-12-20, 02:04:04,VALID,997.796,VALID,0,VALID,89.7777,VALID,0,VALID,24.1287,VALID,82,VALID,0.719531,
2010-12-20, 02:05:04,VALID,997.8,VALID,0,VALID,89.9074,VALID,0,VALID,24.1696,VALID,67,VALID,0.701953,
2010-12-20, 02:06:04,VALID,997.833,VALID,0,VALID,90.1287,VALID,0,VALID,24.1482,VALID,67,VALID,0.616016,
2010-12-20, 02:07:04,VALID,997.813,VALID,0,VALID,90.266,VALID,0,VALID,24.1696,VALID,67,VALID,0.570313,
2010-12-20, 02:08:04,VALID,997.865,VALID,0,VALID,90.3576,VALID,0,VALID,24.15,VALID,67,VALID,0.433203,
2010-12-20, 02:09:04,VALID,997.85,VALID,0,VALID,90.4263,VALID,0,VALID,24.1714,VALID,67,VALID,0.0839844,
2010-12-20, 02:10:04,VALID,997.825,VALID,0,VALID,90.4873,VALID,0,VALID,24.1305,VALID,67,VALID,0,
2010-12-20, 02:11:04,VALID,997.853,VALID,0,VALID,90.4797,VALID,0,VALID,24.1092,VALID,67,VALID,0,
2010-12-20, 02:12:04,VALID,997.837,VALID,0,VALID,90.5026,VALID,0,VALID,24.0897,VALID,67,VALID,0.134766,
2010-12-20, 02:13:04,VALID,997.833,VALID,0,VALID,90.4873,VALID,0,VALID,24.0897,VALID,67,VALID,0.139844,
2010-12-20, 02:14:04,VALID,997.846,VALID,0,VALID,90.4949,VALID,0.112286,VALID,24.0701,VALID,67,VALID,0.415625,
2010-12-20, 02:15:04,VALID,997.872,VALID,0,VALID,90.4644,VALID,0,VALID,24.0506,VALID,67,VALID,0.322656,
2010-12-20, 02:16:04,VALID,997.889,VALID,0,VALID,90.4186,VALID,0.112286,VALID,24.0488,VALID,67,VALID,0.417578,
2010-12-20, 02:17:04,VALID,997.889,VALID,0,VALID,90.266,VALID,0,VALID,24.0701,VALID,124,VALID,0.789063,
2010-12-20, 02:18:04,VALID,997.895,VALID,0,VALID,90.0906,VALID,0,VALID,24.0897,VALID,130,VALID,0.930859,
2010-12-20, 02:19:04,VALID,997.874,VALID,0,VALID,89.8464,VALID,0,VALID,24.1092,VALID,130,VALID,1.03242,
2010-12-20, 02:20:04,VALID,997.833,VALID,0,VALID,89.6862,VALID,0,VALID,24.1287,VALID,130,VALID,1.08984,
2010-12-20, 02:21:04,VALID,997.842,VALID,0,VALID,89.5336,VALID,0,VALID,24.1677,VALID,130,VALID,1.04805,
2010-12-20, 02:22:04,VALID,997.822,VALID,0,VALID,89.4344,VALID,0,VALID,24.1677,VALID,130,VALID,0.830859,
2010-12-20, 02:23:04,VALID,997.78,VALID,0,VALID,89.4115,VALID,0,VALID,24.1677,VALID,130,VALID,0.741797,
2010-12-20, 02:24:04,VALID,997.765,VALID,0,VALID,89.4497,VALID,0,VALID,24.1482,VALID,130,VALID,0.529688,
2010-12-20, 02:25:04,VALID,997.785,VALID,0,VALID,89.5183,VALID,0,VALID,24.1287,VALID,130,VALID,0.453125,
2010-12-20, 02:26:04,VALID,997.757,VALID,0,VALID,89.6328,VALID,0,VALID,24.1305,VALID,130,VALID,0.513672,
2010-12-20, 02:27:04,VALID,997.745,VALID,0,VALID,89.7396,VALID,0,VALID,24.111,VALID,130,VALID,0.391797,
2010-12-20, 02:28:04,VALID,997.727,VALID,0,VALID,89.8235,VALID,0,VALID,24.111,VALID,130,VALID,0.298047,
2010-12-20, 02:29:04,VALID,997.723,VALID,0,VALID,89.8769,VALID,0,VALID,24.0915,VALID,130,VALID,0.269531,
2010-12-20, 02:30:04,VALID,997.705,VALID,0,VALID,89.9074,VALID,0,VALID,24.0915,VALID,130,VALID,0.289453,
2010-12-20, 02:31:04,VALID,997.675,VALID,0,VALID,89.9609,VALID,0,VALID,24.072,VALID,130,VALID,0.239063,
2010-12-20, 02:32:04,VALID,997.611,VALID,0,VALID,90.0066,VALID,0,VALID,24.072,VALID,130,VALID,0.277734,
2010-12-20, 02:33:04,VALID,997.592,VALID,0,VALID,90.0371,VALID,0,VALID,24.0525,VALID,130,VALID,0.392969,
2010-12-20, 02:34:04,VALID,997.58,VALID,0,VALID,90.0753,VALID,0,VALID,24.0525,VALID,130,VALID,0.689453,
2010-12-20, 02:35:04,VALID,997.581,VALID,0,VALID,89.9532,VALID,0,VALID,24.0329,VALID,130,VALID,1.0793,
2010-12-20, 02:36:04,VALID,997.594,VALID,0,VALID,89.8083,VALID,0,VALID,24.0329,VALID,130,VALID,1.24258,
2010-12-20, 02:37:04,VALID,997.622,VALID,0,VALID,89.8769,VALID,0,VALID,24.0329,VALID,130,VALID,1.13047,
2010-12-20, 02:38:04,VALID,997.639,VALID,0,VALID,89.9532,VALID,0,VALID,23.9744,VALID,130,VALID,1.12656,
2010-12-20, 02:39:04,VALID,997.64,VALID,0,VALID,90.0371,VALID,0,VALID,23.9354,VALID,130,VALID,1.0793,
2010-12-20, 02:40:04,VALID,997.652,VALID,0,VALID,90.1897,VALID,0,VALID,23.9372,VALID,130,VALID,1.0418,
2010-12-20, 02:41:04,VALID,997.694,VALID,0,VALID,90.3118,VALID,0,VALID,23.8963,VALID,130,VALID,0.903906,
2010-12-20, 02:42:04,VALID,997.687,VALID,0,VALID,90.4263,VALID,0,VALID,23.8963,VALID,130,VALID,0.561719,
2010-12-20, 02:43:04,VALID,997.71,VALID,0,VALID,90.4949,VALID,0,VALID,23.8768,VALID,130,VALID,0.241016,
2010-12-20, 02:44:04,VALID,997.704,VALID,0,VALID,90.5483,VALID,0,VALID,23.8573,VALID,130,VALID,0.232812,
2010-12-20, 02:45:04,VALID,997.703,VALID,0,VALID,90.617,VALID,0,VALID,23.8573,VALID,130,VALID,0,
2010-12-20, 02:46:04,VALID,997.737,VALID,0,VALID,90.7314,VALID,0,VALID,23.8573,VALID,130,VALID,0.15,
2010-12-20, 02:47:04,VALID,997.77,VALID,0,VALID,90.823,VALID,0,VALID,23.8573,VALID,130,VALID,0.356641,
2010-12-20, 02:48:04,VALID,997.752,VALID,0,VALID,90.9756,VALID,0,VALID,23.8573,VALID,130,VALID,0.533594,
2010-12-20, 02:49:04,VALID,997.773,VALID,0,VALID,91.0366,VALID,0,VALID,23.8378,VALID,104,VALID,0.659766,
2010-12-20, 02:50:04,VALID,997.776,VALID,0,VALID,91.0595,VALID,0,VALID,23.8573,VALID,97,VALID,0.731641,
2010-12-20, 02:51:04,VALID,997.735,VALID,0,VALID,91.1206,VALID,0,VALID,23.8378,VALID,97,VALID,0.439453,
2010-12-20, 02:52:04,VALID,997.742,VALID,0,VALID,91.1129,VALID,0,VALID,23.8378,VALID,97,VALID,0.482031,
2010-12-20, 02:53:04,VALID,997.758,VALID,0,VALID,91.0595,VALID,0,VALID,23.7988,VALID,97,VALID,0.517969,
2010-12-20, 02:54:04,VALID,997.711,VALID,0,VALID,91.0061,VALID,0,VALID,23.7597,VALID,97,VALID,0.530859,
2010-12-20, 02:55:04,VALID,997.651,VALID,0,VALID,91.0137,VALID,0,VALID,23.7402,VALID,97,VALID,0.308203,
2010-12-20, 02:56:04,VALID,997.654,VALID,0,VALID,91.0519,VALID,0,VALID,23.742,VALID,97,VALID,0.146094,
2010-12-20, 02:57:04,VALID,997.644,VALID,0,VALID,91.1053,VALID,0,VALID,23.7207,VALID,97,VALID,0.0601562,
2010-12-20, 02:58:04,VALID,997.604,VALID,0,VALID,91.174,VALID,0,VALID,23.7207,VALID,97,VALID,0.201562,
2010-12-20, 02:59:04,VALID,997.601,VALID,0,VALID,91.235,VALID,0,VALID,23.7207,VALID,97,VALID,0.2625,
2010-12-20, 03:00:04,VALID,997.595,VALID,0,VALID,91.3113,VALID,0,VALID,23.7207,VALID,97,VALID,0.361719,
2010-12-20, 03:01:04,VALID,997.617,VALID,0,VALID,91.3494,VALID,0,VALID,23.7402,VALID,97,VALID,0.476953,
2010-12-20, 03:02:04,VALID,997.611,VALID,0,VALID,91.4334,VALID,0,VALID,23.7402,VALID,97,VALID,0.485938,
2010-12-20, 03:03:04,VALID,997.597,VALID,0,VALID,91.4791,VALID,0,VALID,23.7597,VALID,116,VALID,0.617578,
2010-12-20, 03:04:04,VALID,997.614,VALID,0,VALID,91.4791,VALID,0,VALID,23.7597,VALID,134,VALID,0.691406,
2010-12-20, 03:05:04,VALID,997.677,VALID,0,VALID,91.4715,VALID,0,VALID,23.7793,VALID,146,VALID,0.855859,
2010-12-20, 03:06:04,VALID,997.659,VALID,0,VALID,91.3952,VALID,0,VALID,23.7793,VALID,150,VALID,1.02773,
2010-12-20, 03:07:04,VALID,997.663,VALID,0,VALID,91.3342,VALID,0,VALID,23.7793,VALID,150,VALID,0.911328,
2010-12-20, 03:08:04,VALID,997.633,VALID,0,VALID,91.2884,VALID,0,VALID,23.7988,VALID,150,VALID,1.175,
2010-12-20, 03:09:04,VALID,997.572,VALID,0,VALID,91.2579,VALID,0,VALID,23.7793,VALID,158,VALID,1.09766,
2010-12-20, 03:10:04,VALID,997.536,VALID,0,VALID,91.2045,VALID,0,VALID,23.7988,VALID,154,VALID,0.975,
2010-12-20, 03:11:04,VALID,997.509,VALID,0,VALID,91.174,VALID,0,VALID,23.7988,VALID,154,VALID,0.822266,
2010-12-20, 03:12:04,VALID,997.485,VALID,0,VALID,91.1663,VALID,0,VALID,23.7988,VALID,154,VALID,0.632813,
2010-12-20, 03:13:04,VALID,997.458,VALID,0,VALID,91.1511,VALID,0,VALID,23.7775,VALID,149,VALID,0.731641,
2010-12-20, 03:14:04,VALID,997.472,VALID,0,VALID,91.1663,VALID,0,VALID,23.7988,VALID,147,VALID,0.723437,
2010-12-20, 03:15:04,VALID,997.466,VALID,0,VALID,91.1282,VALID,0,VALID,23.7988,VALID,147,VALID,0.511719,
2010-12-20, 03:16:04,VALID,997.504,VALID,0,VALID,91.0366,VALID,0,VALID,23.8006,VALID,147,VALID,0.583594,
2010-12-20, 03:17:04,VALID,997.5,VALID,0,VALID,90.9603,VALID,0,VALID,23.7597,VALID,147,VALID,0.327344,
2010-12-20, 03:18:04,VALID,997.533,VALID,0,VALID,90.9069,VALID,0,VALID,23.7597,VALID,140,VALID,0.435937,
2010-12-20, 03:19:04,VALID,997.566,VALID,0,VALID,90.8459,VALID,0,VALID,23.7402,VALID,140,VALID,0.436719,
2010-12-20, 03:20:04,VALID,997.55,VALID,0,VALID,90.8001,VALID,0,VALID,23.7012,VALID,84,VALID,0.508594,
2010-12-20, 03:21:04,VALID,997.585,VALID,0,VALID,90.823,VALID,0,VALID,23.6817,VALID,63,VALID,0.655078,
2010-12-20, 03:22:04,VALID,997.62,VALID,0,VALID,90.8688,VALID,0,VALID,23.6622,VALID,63,VALID,0.388281,
2010-12-20, 03:23:04,VALID,997.614,VALID,0,VALID,90.8917,VALID,0,VALID,23.6427,VALID,63,VALID,0.462109,
2010-12-20, 03:24:04,VALID,997.63,VALID,0,VALID,90.9374,VALID,0,VALID,23.6232,VALID,63,VALID,0.557031,
2010-12-20, 03:25:04,VALID,997.573,VALID,0,VALID,91.1129,VALID,0,VALID,23.6232,VALID,63,VALID,0.668359,
2010-12-20, 03:26:04,VALID,997.567,VALID,0,VALID,91.2197,VALID,0,VALID,23.6036,VALID,63,VALID,0.672656,
2010-12-20, 03:27:04,VALID,997.564,VALID,0,VALID,91.2426,VALID,0,VALID,23.5841,VALID,49,VALID,0.925,
2010-12-20, 03:28:04,VALID,997.579,VALID,0,VALID,91.296,VALID,0,VALID,23.5256,VALID,42,VALID,0.897266,
2010-12-20, 03:29:04,VALID,997.563,VALID,0,VALID,91.296,VALID,0,VALID,23.4866,VALID,42,VALID,0.630859,
2010-12-20, 03:30:04,VALID,997.601,VALID,0,VALID,91.3266,VALID,0,VALID,23.4688,VALID,42,VALID,0.423828,
2010-12-20, 03:31:04,VALID,997.571,VALID,0,VALID,91.38,VALID,0,VALID,23.4085,VALID,42,VALID,0.252734,
2010-12-20, 03:32:04,VALID,997.583,VALID,0,VALID,91.4028,VALID,0,VALID,23.389,VALID,42,VALID,0.466797,
2010-12-20, 03:33:04,VALID,997.582,VALID,0,VALID,91.4639,VALID,0,VALID,23.3695,VALID,42,VALID,0.361328,
2010-12-20, 03:34:04,VALID,997.61,VALID,0,VALID,91.5707,VALID,0,VALID,23.3695,VALID,42,VALID,0.496875,
2010-12-20, 03:35:04,VALID,997.623,VALID,0,VALID,91.7004,VALID,0,VALID,23.3695,VALID,42,VALID,0.492578,
2010-12-20, 03:36:04,VALID,997.624,VALID,0,VALID,91.792,VALID,0,VALID,23.389,VALID,42,VALID,0.408203,
2010-12-20, 03:37:04,VALID,997.678,VALID,0,VALID,91.8988,VALID,0,VALID,23.389,VALID,42,VALID,0.319141,
2010-12-20, 03:38:04,VALID,997.67,VALID,0,VALID,91.9445,VALID,0,VALID,23.4085,VALID,42,VALID,0.165234,
2010-12-20, 03:39:04,VALID,997.683,VALID,0,VALID,91.9827,VALID,0,VALID,23.389,VALID,42,VALID,0.165234,
2010-12-20, 03:40:04,VALID,997.665,VALID,0,VALID,92.0361,VALID,0,VALID,23.4085,VALID,42,VALID,0.3,
2010-12-20, 03:41:04,VALID,997.678,VALID,0,VALID,92.1124,VALID,0,VALID,23.389,VALID,42,VALID,0.283594,
2010-12-20, 03:42:04,VALID,997.651,VALID,0,VALID,92.12,VALID,0,VALID,23.389,VALID,42,VALID,0.437891,
2010-12-20, 03:43:04,VALID,997.654,VALID,0,VALID,92.1658,VALID,0,VALID,23.3695,VALID,42,VALID,0.516797,
2010-12-20, 03:44:04,VALID,997.695,VALID,0,VALID,92.2268,VALID,0,VALID,23.389,VALID,42,VALID,0.623047,
2010-12-20, 03:45:04,VALID,997.635,VALID,0,VALID,92.265,VALID,0,VALID,23.4085,VALID,42,VALID,0.523047,
2010-12-20, 03:46:04,VALID,997.667,VALID,0,VALID,92.2955,VALID,0,VALID,23.4085,VALID,42,VALID,0.458203,